Wind_Speed
3 4 4 5 5 5 5 4 4 5 4 4 3 3 3 3 4 3 3 3 4 5 5 4 4 4 4 4 4 4 4 3 3 3 4 4 3 4 4 4 3 3 3
3 3 3 4 4 4 4 4 4 4 4 4 4 4 4 4 4 4 4 5 5 6 6 6 5 4 4 4 4 4 4 4 4 4 5 5 4 5 5 5 5 4 4
2 3 3 3 4 4 4 4 5 4 4 4 4 4 5 5 5 5 5 6 6 6 6 6 5 5 5 5 5 5 5 5 5 5 5 5 5 5 6 6 5 5 4
2 3 3 3 4 4 4 4 5 5 5 5 5 5 5 5 5 5 6 6 6 5 6 5 4 4 5 5 5 5 5 5 6 5 5 5 6 6 6 6 5 5 5
3 3 3 4 4 4 4 4 5 5 5 5 5 5 5 5 5 5 6 6 6 6 5 4 3 4 5 5 5 5 5 6 5 5 5 5 6 7 6 6 5 5 5
4 4 4 4 4 5 5 5 5 5 6 6 6 6 6 6 5 6 6 6 6 6 5 5 4 5 5 5 6 5 5 6 5 5 5 6 6 7 7 7 6 6 6
5 4 4 5 5 5 5 5 6 6 6 6 6 6 6 6 6 6 6 7 6 6 6 5 5 5 5 6 6 5 5 5 5 6 6 6 7 7 7 7 7 7 7
5 5 5 5 5 6 6 6 6 7 7 7 7 6 6 6 6 6 6 7 7 6 6 6 5 5 6 5 6 6 5 5 5 6 6 6 7 7 7 7 7 7 8
6 6 5 5 5 6 6 6 6 7 7 7 7 7 6 6 7 7 7 7 6 6 6 6 6 6 6 5 6 5 5 5 6 6 7 7 6 7 8 8 8 8 9
6 6 6 6 6 6 6 6 6 7 7 7 7 6 6 6 7 7 7 6 6 6 6 6 6 6 5 6 6 7 6 6 6 6 6 7 6 7 8 7 7 8 8
6 6 6 6 6 6 6 7 8 7 7 7 7 6 6 6 7 7 7 6 6 6 6 6 6 7 7 7 7 7 7 7 6 6 6 7 7 7 7 7 8 8 8
6 6 7 7 7 7 7 7 8 8 7 7 7 7 6 6 7 7 7 6 7 7 7 7 8 8 9 8 8 8 8 8 7 6 6 7 7 8 8 8 8 8 9
7 7 7 7 7 8 8 8 8 7 7 7 7 6 6 7 7 7 7 7 7 7 7 7 8 9 9 9 9 9 8 8 8 8 7 7 8 8 8 7 7 8 9
8 8 8 8 8 8 8 8 7 7 7 7 7 7 7 7 7 7 7 7 7 7 7 7 8 9 9 9 9 9 8 8 9 8 8 7 7 7 7 7 7 7 8
8 8 8 8 9 8 7 8 7 7 7 7 6 6 6 6 6 6 7 7 7 7 7 8 8 8 9 9 9 9 9 9 9 8 8 7 7 7 7 7 8 8 8
9 9 8 8 8 7 7 8 7 7 6 6 6 7 6 6 6 7 7 7 7 7 8 8 8 8 8 9 9 9 9 9 8 8 7 7 7 7 7 7 8 8 7
8 8 9 9 8 7 8 8 8 7 6 6 6 6 6 7 7 7 7 8 8 8 8 8 8 9 9 8 9 9 9 9 8 7 7 7 7 7 8 8 8 8 8
8 8 9 8 8 8 8 8 8 7 6 6 6 6 6 7 8 8 7 8 8 8 7 7 8 8 8 8 8 9 9 8 8 7 7 7 7 8 8 8 9 9 8
8 7 8 7 7 7 7 7 7 6 6 7 7 7 7 7 8 7 8 8 8 7 7 7 8 8 8 8 8 8 9 8 8 8 8 8 8 8 8 9 9 9 9
8 7 7 8 8 8 7 7 7 7 7 7 7 7 7 7 8 8 8 8 8 7 7 7 8 8 9 9 8 8 9 9 9 9 8 8 8 8 8 9 9 10 10
8 8 8 8 8 8 8 8 7 8 8 8 8 8 8 8 8 8 8 8 8 8 8 8 8 9 9 9 9 9 9 9 9 9 9 8 9 9 9 10 10 10 10
8 8 8 8 8 9 8 8 8 8 9 8 8 9 9 8 8 8 8 8 8 8 8 8 9 10 10 10 9 9 9 10 9 9 9 9 10 10 10 10 10 11 11
9 8 8 8 8 9 9 9 9 9 9 8 8 9 9 9 9 9 8 8 8 8 9 9 9 10 10 10 10 9 9 10 10 10 10 10 10 11 11 11 11 11 11
10 9 9 9 10 10 10 10 10 10 10 10 10 9 9 9 9 9 9 9 9 9 9 9 10 10 10 10 10 10 10 10 11 11 11 11 12 11 11 11 11 11 11
10 10 10 10 10 11 11 10 11 10 11 11 11 10 9 10 9 9 10 10 10 10 10 11 11 11 11 11 11 11 11 11 11 11 12 12 13 12 12 12 11 11 11
11 11 11 11 11 12 12 11 12 12 11 11 11 11 11 11 11 11 11 11 11 11 11 11 11 11 12 12 12 12 12 12 12 12 13 13 13 13 13 13 12 11 11
Wind_Direction
21 11 7 12 13 16 16 13 11 14 11 1 4 2 351 337 323 323 321 323 318 319 318 310 298 298 300 301 304 308 305 299 287 263 259 257 261 258 247 245 249 252 264
9 1 359 2 1 4 4 360 350 355 358 353 348 342 333 328 321 314 312 311 309 309 307 301 288 280 287 297 304 305 305 297 286 266 257 251 249 250 249 250 253 253 259
351 348 348 345 349 355 357 353 348 345 346 341 331 328 322 317 311 310 312 309 308 309 306 307 291 268 281 291 298 298 299 293 282 269 257 250 245 248 253 256 258 257 257
312 321 328 333 338 342 349 347 341 333 329 334 329 321 315 313 308 303 303 302 307 309 311 312 300 268 280 286 291 294 299 300 288 272 263 258 250 249 251 256 256 256 260
289 298 304 319 322 324 331 336 334 330 323 323 321 319 318 311 303 299 302 301 303 306 305 301 292 281 282 280 289 298 301 303 293 274 268 262 259 255 251 253 256 257 260
280 283 286 295 302 308 316 319 320 319 318 316 314 314 314 309 303 300 299 301 303 303 298 293 289 290 282 283 289 295 300 300 295 276 274 267 265 261 258 256 256 255 259
288 288 281 284 292 299 305 312 316 315 314 311 310 310 308 304 298 296 297 296 299 297 289 286 288 288 289 288 287 290 297 303 293 279 275 272 265 261 258 254 251 255 257
288 287 287 287 292 296 302 307 310 313 311 307 305 302 300 295 292 289 290 291 291 292 287 279 279 284 291 290 287 287 289 299 295 282 280 276 268 260 256 252 251 257 259
282 279 282 287 290 294 299 305 307 311 310 304 297 296 295 289 285 286 287 287 290 290 282 282 281 281 279 283 282 286 289 284 289 285 277 276 272 267 262 255 253 254 257
277 279 283 283 288 292 297 302 304 306 308 304 297 294 292 288 287 287 286 283 282 289 288 288 285 283 283 282 279 286 291 288 285 285 280 276 274 272 272 263 254 257 258
277 280 284 284 285 289 293 298 301 300 303 304 299 294 293 295 294 290 284 283 285 292 289 286 285 287 288 287 291 293 290 290 287 283 284 279 274 273 274 267 262 265 264
279 282 282 282 283 287 290 295 298 298 298 300 297 294 293 292 291 289 284 279 281 285 283 282 285 288 289 291 292 290 289 290 288 282 280 282 279 278 274 268 266 265 266
282 282 281 283 282 284 287 289 292 295 294 297 296 291 290 290 289 288 283 279 282 282 281 286 288 289 288 291 291 290 287 287 288 287 284 284 282 284 284 276 273 267 266
282 286 284 284 285 283 284 285 289 293 291 294 294 295 293 292 290 288 284 280 282 284 283 289 291 290 290 291 289 289 289 286 283 284 286 287 286 287 287 285 284 274 269
276 279 282 288 289 279 275 280 284 290 287 289 292 293 295 296 293 291 287 282 284 286 287 287 289 290 290 291 287 286 286 285 281 281 282 286 286 283 284 286 287 281 276
275 276 281 285 292 281 277 280 282 287 287 288 294 293 294 294 292 292 291 287 286 286 285 288 287 288 289 289 287 284 283 285 282 281 279 282 284 279 282 286 281 276 278
274 276 283 286 282 278 276 277 277 280 286 286 293 294 296 294 289 288 290 291 291 289 288 287 285 283 286 288 285 284 282 278 278 277 277 282 282 279 278 280 283 281 278
272 276 281 285 283 282 277 274 273 271 279 283 282 282 285 290 290 292 291 289 291 291 288 286 285 284 284 284 283 283 281 275 273 272 276 282 282 279 279 279 280 281 280
270 274 280 283 287 284 279 274 264 268 274 282 281 279 279 284 289 291 293 288 289 290 287 284 282 285 286 286 284 281 279 277 272 272 274 278 280 279 279 280 280 280 278
268 273 278 281 286 282 278 270 268 266 269 280 288 285 280 280 284 289 291 289 290 290 288 287 288 292 293 288 283 279 278 275 273 269 271 275 277 279 281 282 281 280 278
267 269 272 275 281 281 279 276 271 271 273 278 283 286 286 285 284 286 285 289 289 288 286 286 291 299 299 292 285 277 273 272 271 272 273 275 275 278 279 281 281 280 277
269 270 270 272 275 278 281 280 276 275 275 275 277 280 284 286 288 287 284 285 286 287 288 289 294 299 296 292 287 281 275 272 272 274 275 274 277 279 280 280 282 281 279
268 268 267 267 270 272 272 273 274 275 273 276 278 278 280 283 283 284 288 286 287 288 289 293 296 296 294 293 291 284 278 274 273 272 275 276 277 278 278 280 280 278 277
270 271 271 269 270 270 269 270 271 272 276 276 277 277 276 280 281 282 286 289 289 290 291 294 298 298 296 293 290 286 281 278 277 274 275 277 277 276 277 279 280 279 279
273 273 273 272 272 272 269 271 272 273 276 277 276 275 276 280 283 285 284 287 287 288 289 291 294 295 295 291 287 285 283 280 279 277 275 276 278 277 279 278 280 277 277
275 275 277 276 273 272 269 271 273 274 275 276 276 275 276 277 279 282 284 286 286 286 287 290 292 292 292 290 287 285 285 283 282 279 275 275 277 279 279 279 279 278 279
Height
5881 5880 5880 5879 5879 5878 5878 5877 5877 5876 5876 5876 5875 5875 5875 5875 5875 5875 5875 5875 5875 5875 5875 5874 5874 5874 5874 5874 5874 5874 5874 5874 5874 5874 5875 5875 5876 5876 5876 5877 5877 5877 5877
5881 5880 5880 5879 5879 5879 5878 5877 5877 5876 5876 5876 5875 5875 5875 5875 5875 5875 5875 5875 5874 5874 5874 5872 5872 5872 5873 5873 5873 5873 5873 5873 5873 5873 5874 5874 5875 5875 5875 5876 5876 5876 5876
5881 5880 5880 5880 5879 5878 5878 5877 5877 5876 5876 5875 5875 5875 5875 5875 5874 5874 5874 5874 5874 5873 5872 5869 5867 5870 5872 5872 5873 5873 5872 5872 5872 5872 5873 5873 5874 5874 5875 5875 5875 5875 5875
5880 5880 5880 5879 5879 5878 5878 5877 5877 5876 5875 5875 5875 5874 5874 5874 5874 5874 5873 5873 5873 5872 5870 5867 5866 5868 5871 5871 5871 5872 5871 5871 5871 5871 5872 5872 5873 5873 5873 5874 5874 5874 5874
5880 5879 5879 5879 5878 5878 5877 5877 5876 5876 5875 5874 5874 5873 5873 5873 5873 5873 5872 5872 5872 5871 5870 5869 5868 5869 5870 5870 5871 5871 5870 5870 5870 5870 5871 5871 5871 5872 5872 5872 5873 5873 5873
5879 5879 5878 5878 5878 5877 5877 5876 5876 5875 5874 5874 5873 5872 5872 5872 5872 5872 5871 5871 5871 5871 5870 5869 5869 5869 5870 5870 5870 5870 5870 5869 5869 5869 5870 5870 5870 5870 5871 5871 5871 5871 5872
5878 5878 5878 5877 5877 5877 5876 5875 5875 5874 5873 5872 5872 5871 5871 5871 5871 5870 5870 5870 5870 5870 5869 5869 5869 5869 5869 5869 5869 5869 5869 5868 5868 5868 5868 5868 5869 5869 5869 5869 5869 5870 5870
5877 5877 5876 5876 5876 5876 5875 5874 5874 5873 5872 5871 5871 5870 5870 5870 5869 5869 5869 5869 5869 5868 5868 5868 5868 5868 5867 5868 5868 5868 5868 5867 5867 5867 5867 5867 5867 5867 5867 5867 5868 5868 5868
5876 5875 5875 5875 5875 5875 5874 5873 5873 5872 5871 5870 5870 5869 5869 5868 5868 5868 5867 5867 5867 5867 5867 5867 5867 5867 5867 5866 5866 5866 5866 5866 5866 5866 5866 5866 5866 5866 5865 5865 5865 5866 5866
5874 5874 5874 5874 5874 5873 5873 5872 5871 5871 5870 5869 5868 5868 5867 5867 5867 5866 5866 5866 5866 5866 5866 5866 5866 5866 5865 5865 5865 5865 5865 5865 5864 5864 5864 5864 5864 5864 5864 5863 5863 5864 5864
5873 5873 5873 5873 5872 5872 5871 5871 5870 5869 5868 5868 5867 5866 5866 5866 5865 5865 5864 5864 5864 5865 5865 5865 5864 5864 5864 5864 5864 5863 5864 5863 5863 5863 5863 5862 5862 5862 5862 5862 5862 5862 5862
5872 5872 5871 5871 5871 5870 5870 5869 5869 5868 5867 5866 5866 5865 5865 5865 5864 5864 5863 5863 5863 5863 5863 5864 5864 5863 5863 5863 5862 5862 5862 5862 5862 5862 5861 5861 5861 5860 5860 5860 5860 5860 5860
5870 5870 5870 5869 5869 5869 5868 5868 5867 5866 5866 5865 5865 5864 5864 5863 5863 5862 5862 5862 5862 5862 5862 5862 5862 5862 5862 5861 5861 5861 5861 5861 5860 5860 5860 5859 5859 5858 5858 5858 5858 5858 5858
5868 5868 5868 5868 5867 5867 5866 5866 5865 5865 5864 5864 5863 5863 5862 5862 5861 5861 5861 5861 5861 5861 5861 5861 5860 5860 5860 5860 5860 5859 5859 5859 5859 5859 5858 5858 5857 5857 5856 5856 5856 5856 5856
5867 5867 5866 5866 5865 5865 5865 5865 5864 5863 5863 5863 5862 5862 5861 5861 5860 5860 5860 5859 5859 5859 5859 5859 5859 5859 5858 5858 5858 5858 5857 5857 5857 5857 5857 5856 5855 5855 5855 5855 5855 5855 5855
5865 5865 5864 5864 5863 5863 5863 5863 5862 5862 5861 5861 5861 5860 5860 5859 5859 5859 5858 5858 5858 5858 5858 5857 5857 5857 5857 5856 5856 5856 5855 5855 5855 5855 5855 5855 5854 5854 5853 5853 5853 5853 5853
5863 5863 5863 5862 5862 5862 5861 5861 5861 5861 5860 5860 5859 5859 5859 5858 5858 5857 5857 5857 5857 5856 5856 5856 5855 5855 5855 5854 5854 5854 5854 5853 5853 5853 5853 5853 5853 5852 5852 5852 5851 5851 5851
5862 5861 5861 5861 5860 5860 5860 5860 5859 5859 5859 5858 5858 5857 5857 5857 5856 5856 5856 5855 5855 5855 5854 5854 5854 5853 5853 5852 5852 5852 5852 5851 5851 5851 5851 5851 5851 5850 5850 5850 5850 5849 5849
5860 5859 5859 5859 5859 5858 5858 5858 5857 5857 5857 5857 5856 5856 5856 5855 5855 5855 5854 5854 5853 5853 5853 5852 5852 5851 5851 5850 5850 5850 5850 5849 5849 5849 5849 5849 5849 5849 5848 5848 5848 5848 5847
5858 5858 5857 5857 5857 5857 5856 5856 5856 5856 5856 5855 5855 5854 5854 5854 5853 5853 5852 5852 5852 5851 5851 5850 5850 5849 5849 5849 5848 5848 5847 5847 5847 5847 5847 5847 5847 5847 5846 5846 5846 5845 5845
5856 5856 5856 5856 5855 5855 5855 5854 5854 5854 5854 5853 5853 5853 5852 5852 5851 5851 5851 5850 5850 5850 5849 5848 5848 5847 5847 5846 5846 5846 5845 5845 5845 5845 5845 5845 5845 5844 5844 5844 5843 5843 5843
5854 5854 5854 5853 5853 5853 5853 5853 5852 5852 5852 5851 5851 5851 5850 5850 5849 5849 5848 5848 5848 5848 5847 5847 5846 5845 5845 5844 5844 5844 5843 5844 5842 5842 5842 5842 5842 5842 5841 5841 5840 5840 5840
5852 5852 5851 5851 5851 5851 5851 5851 5850 5850 5850 5849 5849 5849 5848 5848 5847 5847 5847 5846 5846 5845 5845 5845 5844 5844 5843 5842 5841 5841 5841 5841 5840 5840 5840 5840 5840 5839 5839 5838 5838 5837 5837
5849 5849 5849 5849 5849 5849 5848 5848 5848 5847 5847 5847 5846 5846 5846 5846 5845 5845 5844 5844 5844 5843 5843 5842 5842 5841 5841 5840 5839 5839 5839 5838 5838 5838 5838 5837 5837 5836 5836 5835 5835 5834 5834
5847 5847 5846 5846 5846 5846 5846 5846 5845 5845 5845 5844 5844 5843 5843 5843 5843 5842 5842 5842 5841 5841 5840 5840 5840 5839 5838 5838 5837 5836 5836 5835 5835 5835 5835 5834 5834 5834 5833 5832 5832 5832 5831
5844 5844 5843 5843 5843 5843 5843 5843 5843 5842 5842 5841 5841 5841 5841 5840 5840 5840 5839 5839 5839 5838 5838 5837 5837 5836 5835 5834 5834 5833 5833 5832 5832 5832 5832 5831 5831 5830 5830 5829 5829 5829 5828